Regional Weather Roundup
Issued by NWS

Home | Current Version | Previous Version | Text Only | Print | Product List | Glossary Off
Versions: 1 2 3 4 5 6 7 8 9 10 11 12 13 14 15 16 17 18 19 20 21 22 23 24 25 26 27 28 29 30 31 32 33 34 35 36 37 38 39 40 41 42 43 44 45 46 47 48 49 50

000
ASUS43 KMPX 211110
RWRMN
WEATHER ROUNDUP FOR MINNESOTA
NATIONAL WEATHER SERVICE TWIN CITIES/CHANHASSEN MN
600 AM CDT MON AUG 21 2017


NOTE: "FAIR" INDICATES FEW OR NO CLOUDS BELOW 12,000 FEET WITH NO
SIGNIFICANT WEATHER AND/OR OBSTRUCTIONS TO VISIBILITY. N/A MEANS
CURRENT SKY AND/OR WEATHER CONDITIONS ARE NOT AVAILABLE.

MNZ060>063-068>070-211200-
   Twin Cities Metro

CITY           SKY/WX    TMP DP  RH WIND       PRES   REMARKS
TWIN CITIES    MOCLDY    66  57  72 VRB5      30.05R
ST PAUL        MOCLDY    66  59  78 N7        30.05R
CRYSTAL        CLOUDY    63  58  83 CALM      30.04R
BLAINE         MOCLDY    63  61  94 SE3       30.06R
LAKEVILLE      CLOUDY    64  64 100 CALM      30.04S
EDEN PRAIRIE   PTCLDY    66  59  78 NE6       30.03R
SOUTH ST PAUL  CLOUDY    67  58  71 CALM      30.04R
LAKE ELMO      MOCLDY    63  61  94 N6        30.07R
$$
MNZ001>005-007-008-013>017-022>024-027-028-211200-
   Northwest Minnesota

CITY           SKY/WX    TMP DP  RH WIND       PRES   REMARKS
BEMIDJI        CLOUDY    48  46  93 CALM      30.05R
HALLOCK        CLOUDY    54  48  82 CALM      29.99S
ROSEAU         MOCLDY    50  45  81 CALM      30.00R
WARROAD        MOCLDY    52  46  82 S6        30.00R
THIEF RVR FALL MOCLDY    51  47  86 SE5       30.03R
CROOKSTON      CLOUDY    54  48  82 SE7       30.01S
FOSSTON        PTCLDY    48  45  87 CALM      30.04R
DETROIT LAKES  CLOUDY    59  55  88 CALM      30.06R
MOORHEAD       CLOUDY    57  55  94 CALM      30.03R
PARK RAPIDS    MOCLDY    54  52  93 SW5       30.07R
MAHNOMEN       FAIR      55  53  91 SE6       30.04R
$$
MNZ006-009>011-018-025>026-211200-
   North Central Minnesota

CITY           SKY/WX    TMP DP  RH WIND       PRES   REMARKS
BAUDETTE       CLOUDY    48  46  93 CALM      30.00R
FLAG ISLAND    CLOUDY    64  45  48 W5        29.97S HAZE
INTL FALLS     PTCLDY    44  42  93 CALM      30.02R
WASKISH        PTCLDY    45  45 100 CALM      30.03R
BIG FORK       PTCLDY    43  41  93 CALM      30.05R
LONGVILLE      PTCLDY    52  52 100 CALM      30.05R
GRAND RAPIDS   CLOUDY    51  50  96 S3        30.08R
CRANE LAKE     CLEAR     41  41 100 CALM      30.06R
ORR            PTCLDY    46  45  93 CALM      30.03R
COOK           PTCLDY    45  45 100 CALM      30.07R
WALKER         FAIR      50  50  98 CALM      30.06R
$$
MNZ012-019>021-037-211200-
   Northeast Minnesota

CITY           SKY/WX    TMP DP  RH WIND       PRES   REMARKS
DULUTH         CLOUDY    53  52  96 CALM      30.07R
ELY            CLEAR     45  45 100 CALM      30.07R
HIBBING        CLOUDY    42  42 100 CALM      30.06R
EVELETH        CLOUDY    45  43  92 CALM      30.08R
DULUTH HARBOR  CLOUDY    57  55  94 SW3       30.07R
TWO HARBORS    CLOUDY    54  48  82 CALM      30.05R
SILVER BAY     CLEAR     45  45 100 CALM      30.05R
GRAND MARAIS     N/A     62  51  67 VRB5      30.04R
G MARAIS ARPRT CLOUDY    48  45  87 CALM      30.09R
$$
MNZ029>031-032-039>041-046>048-054>057-064-211200-
   West Central Minnesota

CITY           SKY/WX    TMP DP  RH WIND       PRES   REMARKS
FERGUS FALLS   CLOUDY    57  57 100 S5        30.05R
WHEATON        CLOUDY    54  52  94 CALM      30.06S
MORRIS         CLOUDY    57  55  94 E3        30.03F
ALEXANDRIA     CLOUDY    59  54  83 E3        30.07R
ELBOW LAKE     CLOUDY    58  56  93 E3        30.05S
WADENA         CLOUDY    54  54 100 CALM      30.06R
GLENWOOD       CLOUDY    57  54  88 NE6       30.05S
APPLETON       CLEAR     57  54  88 CALM      30.02S
BENSON         MOCLDY    57  55  94 SE3       30.03F
ORTONVILLE     PTCLDY    55  54  94 MISG      30.03S
MADISON        CLEAR     55  55 100 CALM      30.02R
WILLMAR        FAIR      63  57  82 E3        30.05R
$$
MNZ033>034-036-042>043-049>051-058-059-211200-
   Central Minnesota

CITY           SKY/WX    TMP DP  RH WIND       PRES   REMARKS
ST CLOUD       CLOUDY    58  57  97 N3        30.04S
SAUK CENTRE    PTSUNNY   58  55  89 CALM      30.06S
PAYNESVILLE    CLOUDY    59  57  94 SE3       30.05R
AITKIN         CLOUDY    52  50  93 CALM      30.06R
PINE RIVER     PTCLDY    50  50 100 CALM      30.09R
BRAINERD       CLOUDY    56  54  93 CALM      30.07R
STAPLES        CLOUDY    54  54 100 CALM      30.07R
LONG PRAIRIE   MOCLDY    55  54  94 CALM      30.07S
LITTLE FALLS   CLOUDY    55  54  94 CALM      30.06S
LITCHFIELD     CLOUDY    61  61 100 CALM      30.04S
BUFFALO        PTCLDY    60  57  89 CALM      30.06R
MAPLE LAKE     CLOUDY    60  59  97 N3        30.07R
HUTCHINSON     CLOUDY    64  61  92 E6        30.05R
$$
MNZ037-044-045-052-053-211200-
   East Central Minnesota

CITY           SKY/WX    TMP DP  RH WIND       PRES   REMARKS
PRINCETON      CLOUDY    61  59  94 CALM      30.05S
MORA           CLOUDY    55  55 100 CALM      30.07S
CAMBRIDGE      CLOUDY    63  61  94 CALM      30.05S
RUSH CITY      CLOUDY    57  56  95 CALM      30.06S
MOOSE LAKE     CLOUDY    50  50 100 CALM      30.06R
HINCKLEY       FAIR      54  54 100 CALM      30.06F
CLOQUET        CLOUDY    54  50  87 CALM      30.07R
MCGREGOR       CLOUDY    52  50  93 CALM      30.08R
$$
MNZ071>073-080-081-089-090-097-098-211200-
   Southwest Minnesota

CITY           SKY/WX    TMP DP  RH WIND       PRES   REMARKS
MONTEVIDEO     MOCLDY    57  57 100 SE5       30.03S
GRANITE FALLS  CLEAR     62  59  91 NE6       30.03F
CANBY          MOCLDY    59  58  96 CALM      30.04R
MARSHALL       CLOUDY    61  60  97 N3        30.02S
REDWOOD FALLS  CLOUDY    64  60  87 NE6       30.02R
OLIVIA         MOCLDY    61  57  88 E3        30.02S
PIPESTONE      MOCLDY    66  63  88 E8        30.02S
WINDOM         CLOUDY    64  63  94 E6        30.02F FOG
WORTHINGTON    CLOUDY    66  65  96 NE3       30.03R
JACKSON        CLOUDY    66  66 100 CALM      30.03R FOG
TRACY          CLOUDY    64  63  98 CALM      30.03S
SLAYTON        CLOUDY    65  59  83 E6        30.04R
$$
MNZ065>067-074>077-082>085-091>093-211200-
   South Central Minnesota

CITY           SKY/WX    TMP DP  RH WIND       PRES   REMARKS
MANKATO        CLOUDY    67  65  93 SE7       30.02F
NEW ULM        CLOUDY    66  63  88 E8        30.00F
ST JAMES       CLOUDY    66  66 100 CALM      30.03S
FAIRMONT       CLOUDY    69  67  93 S7        30.02F
GLENCOE        MOCLDY    64  64  99 CALM      30.04R
FARIBAULT      DRIZZLE   66  64  94 S5        30.05R
OWATONNA       TSTM      70  66  88 SW9G16    30.06R
WASECA         RAIN      68  64  88 N3        30.06S
ALBERT LEA     CLOUDY    70  66  88 CALM      30.02F
$$
MNZ078>079-086>088-094>096-211200-
   Southeast Minnesota

CITY           SKY/WX    TMP DP  RH WIND       PRES   REMARKS
ROCHESTER      CLOUDY    66  66 100 E3        30.06S
RED WING       CLOUDY    68  63  83 CALM      30.04R
STANTON        CLOUDY    68  64  85 E8        30.02S
DODGE CENTER   CLOUDY    68  64  88 CALM      30.05F
WINONA         CLOUDY    70  64  83 W3        30.06R
AUSTIN         CLOUDY    68  64  88 SE3       30.03F
PRESTON        CLOUDY    67  64  92 SW6       30.07S
$$
ABBREVIATIONS USED IN REMARKS
   TC - TEMPERATURES IN CELSIUS
  WCI - WIND CHILL INDEX
   HX - HEAT INDEX
  VSB - VISIBILITY
$$




USA.gov is the U.S. government's official web portal to all federal, state and local government web resources and services.